Dewpoint
6 5 4 2 2 1 9 10 10 10 11 11 11 11 10 13 13 13 12 5 4 7 9 10 10 9 8 8 8 8 8 8 8
7 6 6 4 2 8 9 10 10 10 11 11 11 11 11 13 13 13 12 9 6 8 8 9 10 11 11 8 8 7 8 8 8
8 7 9 8 6 6 7 9 9 10 10 11 11 10 11 12 13 13 12 11 8 8 9 9 9 9 9 9 8 7 7 7 6
9 7 7 7 5 5 5 8 9 9 10 11 10 10 10 13 12 13 12 12 12 10 10 10 10 9 10 10 8 7 7 6 7
-3 1 5 8 6 4 5 8 9 10 11 10 10 10 10 11 12 12 11 11 11 12 11 10 11 11 11 11 10 10 11 8 8
-1 -2 -2 2 4 5 3 5 9 11 11 10 10 9 10 9 11 11 10 11 10 11 11 12 11 10 10 9 9 9 9 8 7
-1 -3 -3 -2 1 2 3 4 7 11 10 9 10 9 9 8 8 9 9 9 10 11 12 11 11 10 9 11 12 12 9 8 7
1 1 -3 -2 0 3 8 9 9 10 9 9 8 8 8 8 8 8 8 9 10 9 10 11 11 11 11 11 11 10 9 8 7
3 5 5 5 5 9 8 9 9 9 10 9 8 7 7 7 8 7 8 8 10 10 10 11 10 10 9 9 10 10 8 8 7
5 6 5 5 6 7 8 7 7 7 7 7 8 7 7 7 7 7 7 7 7 8 10 11 10 10 10 11 9 8 8 8 8
6 7 7 7 6 6 6 6 7 6 6 6 6 6 6 7 6 7 6 7 7 7 7 7 9 10 11 11 10 9 9 9 8
6 5 7 6 7 8 7 6 6 6 6 6 5 5 6 6 7 7 7 6 7 7 7 7 6 8 11 12 11 10 10 9 9
5 6 4 5 6 6 5 5 5 5 5 5 5 5 5 5 6 7 6 6 7 7 6 6 6 6 6 10 11 11 11 10 10
3 5 6 5 5 5 5 5 5 4 4 5 5 5 5 4 5 6 6 6 6 6 6 5 5 6 5 5 6 8 10 10 10
3 4 4 5 5 4 4 4 4 4 4 4 4 5 4 4 3 3 5 5 6 6 5 5 5 5 5 5 5 5 6 8 8
3 3 3 3 3 5 4 3 4 4 3 4 4 5 3 4 3 3 3 4 6 6 5 4 5 5 4 5 4 5 5 5 6
3 2 2 2 3 3 3 3 3 2 2 1 4 4 4 4 3 3 3 4 3 3 3 3 3 4 4 3 4 5 5 4 4
2 2 2 1 1 1 2 2 2 2 2 2 2 3 4 3 4 3 3 2 2 2 2 2 2 2 2 2 2 2 2 2 2
2 1 1 1 1 1 1 1 1 1 2 1 2 2 1 2 3 3 3 1 1 1 1 1 1 2 2 2 2 2 2 1 0
-2 -2 -2 -1 -1 -1 -0 -0 0 0 1 1 1 1 1 2 2 2 2 1 1 1 1 1 3 1 1 1 1 0 1 1 1
Wind_Speed
14 16 16 10 17 12 9 9 9 11 11 11 11 11 11 13 10 11 11 11 14 14 14 14 12 11 11 12 13 12 13 13 14
12 13 9 10 5 4 6 7 7 10 12 11 12 11 10 11 10 10 10 10 11 12 11 11 11 11 11 11 11 11 10 10 11
12 11 6 6 6 5 6 6 5 8 10 10 11 11 11 11 10 8 9 10 10 10 9 10 9 9 10 9 10 10 10 10 10
7 7 2 2 6 8 7 5 6 7 9 9 11 11 11 11 10 8 8 8 10 10 10 8 7 7 8 8 8 8 8 9 9
2 3 3 5 7 7 8 7 7 6 6 8 9 9 10 12 11 9 7 5 6 5 7 5 6 7 6 6 7 8 7 7 7
4 2 1 3 5 8 7 6 7 8 7 7 7 7 10 9 10 9 8 4 5 4 5 7 8 7 3 2 3 3 4 5 6
4 2 1 1 2 4 6 6 6 6 5 5 4 8 8 9 9 9 8 5 6 6 5 4 7 3 2 3 4 4 4 4 4
5 4 3 3 4 5 7 6 7 6 5 4 5 5 8 8 9 9 7 7 5 5 5 5 7 6 5 4 2 1 1 2 2
6 6 7 8 8 9 9 8 6 5 5 5 3 3 2 5 6 7 7 6 7 6 4 3 2 2 1 2 3 2 1 1 1
7 7 9 10 10 9 5 5 6 5 3 2 2 2 2 2 3 5 6 5 4 5 4 3 1 1 2 2 2 3 3 3 2
7 8 8 7 6 9 5 3 2 1 2 4 6 5 2 4 2 1 4 7 5 3 3 3 4 4 1 2 4 4 4 5 5
6 6 8 7 4 7 6 3 2 2 3 5 9 12 9 6 6 5 5 8 9 8 7 5 4 3 2 3 1 4 5 6 6
5 5 6 6 5 3 1 3 5 5 7 8 9 11 6 9 10 8 8 7 7 8 9 9 9 8 6 8 3 2 3 6 8
5 5 6 7 6 5 4 5 5 5 8 7 7 7 6 5 8 8 9 11 11 12 9 9 10 11 11 11 13 11 6 5 6
8 6 4 3 6 6 5 5 5 6 7 8 6 6 6 5 6 8 13 10 10 11 10 8 10 12 14 16 16 16 14 12 11
4 5 5 6 3 2 5 4 6 8 10 6 7 3 4 1 5 5 2 6 9 9 9 11 12 13 13 17 17 17 20 19 18
2 0 3 5 6 6 4 2 2 4 6 7 4 3 2 5 3 4 3 3 3 5 7 9 11 13 14 17 18 19 19 20 22
4 2 1 0 2 4 6 5 6 5 7 6 4 3 2 10 2 5 4 4 8 9 9 10 10 11 12 13 14 16 18 19 20
2 1 0 0 1 1 2 4 4 4 4 4 4 4 6 3 6 4 9 13 13 14 12 12 13 14 14 15 16 17 18 18 19
3 3 3 3 2 2 2 2 2 2 3 4 5 6 5 9 8 12 10 19 16 15 12 13 11 15 16 19 18 19 20 20 20
Wind_Direction
96 93 110 107 57 55 50 62 72 79 82 83 86 94 104 93 94 101 105 105 111 113 111 106 102 99 95 95 97 100 100 99 96
137 100 82 99 96 85 100 85 73 82 82 80 81 92 98 93 94 97 109 105 113 112 108 104 101 95 90 92 93 94 97 95 93
108 127 96 75 87 95 90 97 78 79 83 76 73 80 94 88 82 96 115 114 114 110 101 97 97 96 97 88 83 83 87 88 91
114 114 122 75 55 82 108 108 104 96 86 80 72 73 88 79 81 78 106 123 130 131 115 91 86 91 92 87 85 86 89 90 92
129 135 100 59 63 63 75 104 115 107 97 82 76 75 76 74 72 61 91 112 132 142 131 111 97 87 87 81 77 79 83 83 87
119 108 63 58 32 58 87 96 109 113 100 83 77 74 71 74 70 73 73 102 129 137 144 146 133 97 70 94 104 109 91 85 87
98 108 107 55 35 45 61 90 108 123 120 86 97 81 73 68 62 63 64 81 97 107 123 123 144 138 103 86 88 98 98 102 99
99 83 82 81 84 94 95 96 110 126 143 125 122 100 61 65 63 54 48 64 89 106 111 120 132 133 120 124 126 30 101 101 105
105 89 99 109 103 94 96 96 106 127 134 139 148 145 156 69 64 50 39 42 69 81 105 139 150 166 266 269 233 289 183 235 271
120 117 111 112 123 131 116 98 91 88 131 143 88 102 84 81 74 50 23 9 32 51 71 77 43 302 325 334 289 271 270 262 263
130 127 122 114 129 122 121 122 106 62 2 338 320 306 320 255 268 318 324 317 335 336 5 25 25 41 338 299 306 292 283 277 277
155 155 143 139 141 148 142 145 85 33 341 314 298 292 274 277 264 264 269 286 303 311 304 313 335 348 29 69 243 293 289 284 284
146 170 173 174 178 212 256 259 292 318 308 293 296 299 314 269 257 252 259 269 280 293 302 299 299 299 292 292 337 187 282 287 291
113 151 168 168 176 201 243 251 262 281 303 326 328 329 327 305 261 254 251 261 274 282 285 290 296 291 288 281 289 303 297 298 285
80 83 101 173 206 211 233 252 260 273 288 333 333 322 305 332 326 282 256 255 262 268 272 273 278 281 289 286 280 282 282 280 282
337 341 20 48 58 208 237 244 279 284 294 328 339 349 37 309 351 17 35 224 250 270 286 290 284 283 284 288 291 282 274 274 273
154 9 342 349 342 349 360 310 268 319 334 354 2 347 12 19 29 28 74 76 14 346 321 316 310 301 294 288 287 288 287 278 275
144 140 137 81 320 316 306 313 325 326 335 354 22 337 312 328 226 337 324 318 339 334 328 320 316 314 308 304 299 294 293 290 287
134 118 96 335 306 308 269 280 269 273 283 278 255 265 284 284 301 278 315 290 311 313 316 314 316 302 302 299 302 302 300 299 293
96 83 60 46 32 23 353 327 311 295 288 286 262 250 250 256 276 289 286 293 298 304 310 322 291 298 296 296 297 297 295 294 292
Height
1566 1567 1564 1565 1565 1566 1566 1567 1566 1566 1564 1565 1564 1563 1563 1564 1566 1565 1566 1566 1566 1567 1567 1567 1568 1567 1567 1566 1566 1567 1567 1567 1567
1569 1568 1568 1569 1570 1571 1570 1570 1568 1567 1566 1567 1566 1566 1566 1566 1567 1567 1568 1568 1569 1569 1570 1570 1570 1570 1570 1569 1569 1569 1569 1570 1569
1571 1572 1571 1571 1572 1572 1571 1570 1569 1568 1568 1568 1568 1567 1567 1568 1568 1569 1570 1570 1571 1571 1572 1572 1572 1572 1572 1572 1572 1571 1572 1572 1571
1572 1573 1573 1573 1572 1572 1572 1572 1571 1571 1570 1571 1570 1571 1570 1570 1570 1572 1571 1572 1572 1571 1572 1573 1574 1574 1575 1574 1574 1574 1574 1573 1573
1573 1574 1574 1573 1573 1572 1571 1573 1573 1572 1572 1573 1573 1573 1573 1572 1573 1573 1572 1573 1573 1574 1574 1574 1575 1576 1577 1577 1576 1576 1575 1575 1575
1574 1574 1574 1573 1572 1572 1573 1573 1573 1573 1574 1575 1575 1575 1575 1574 1574 1574 1574 1574 1574 1575 1575 1575 1574 1578 1578 1578 1577 1577 1577 1577 1576
1574 1574 1574 1573 1573 1572 1573 1573 1573 1575 1576 1576 1576 1577 1577 1575 1575 1575 1575 1575 1574 1575 1575 1576 1576 1577 1578 1579 1579 1578 1578 1578 1578
1575 1575 1574 1574 1573 1573 1574 1574 1575 1576 1577 1578 1577 1578 1579 1578 1578 1577 1577 1576 1576 1576 1576 1577 1578 1578 1578 1579 1579 1579 1579 1579 1579
1576 1575 1574 1574 1575 1575 1576 1576 1577 1577 1578 1578 1578 1578 1579 1579 1579 1579 1578 1578 1578 1577 1577 1578 1578 1578 1579 1579 1579 1579 1579 1580 1580
1576 1576 1575 1575 1575 1576 1577 1578 1578 1578 1579 1578 1578 1579 1579 1580 1580 1579 1579 1579 1579 1578 1578 1579 1578 1578 1579 1579 1579 1579 1579 1579 1579
1576 1577 1576 1576 1576 1577 1578 1578 1578 1579 1579 1579 1579 1578 1578 1579 1579 1579 1579 1580 1580 1580 1580 1579 1578 1578 1579 1579 1579 1579 1579 1579 1579
1576 1576 1576 1576 1577 1577 1578 1578 1578 1578 1577 1578 1578 1577 1577 1578 1578 1579 1579 1581 1580 1580 1580 1579 1579 1579 1579 1579 1579 1579 1579 1579 1579
1577 1576 1576 1577 1577 1577 1577 1577 1577 1577 1577 1577 1577 1576 1577 1577 1576 1577 1579 1579 1579 1580 1579 1578 1578 1579 1579 1579 1577 1577 1577 1578 1578
1577 1577 1577 1577 1577 1577 1578 1578 1578 1577 1576 1576 1577 1576 1576 1575 1574 1575 1577 1577 1578 1578 1578 1577 1578 1578 1578 1578 1577 1576 1576 1577 1576
1578 1577 1576 1576 1576 1576 1577 1577 1576 1575 1575 1576 1576 1576 1575 1574 1574 1574 1575 1575 1576 1576 1576 1576 1576 1576 1576 1576 1575 1574 1574 1574 1575
1577 1577 1576 1576 1575 1575 1575 1575 1575 1574 1574 1575 1574 1575 1573 1574 1574 1574 1573 1572 1574 1574 1574 1574 1574 1575 1574 1574 1573 1572 1572 1571 1571
1574 1574 1574 1574 1574 1575 1574 1574 1574 1573 1573 1573 1574 1575 1575 1574 1573 1573 1572 1573 1573 1573 1573 1573 1572 1572 1571 1572 1570 1569 1569 1567 1567
1572 1572 1572 1572 1573 1573 1573 1573 1573 1573 1573 1573 1575 1575 1575 1574 1573 1573 1573 1573 1573 1572 1572 1572 1571 1569 1569 1568 1566 1565 1565 1564 1562
1571 1571 1571 1571 1572 1572 1572 1572 1572 1572 1572 1572 1573 1573 1574 1574 1573 1573 1573 1570 1571 1570 1571 1570 1569 1567 1567 1565 1563 1563 1562 1560 1560
1571 1571 1571 1571 1571 1570 1571 1571 1570 1570 1570 1570 1570 1571 1571 1571 1572 1570 1570 1568 1568 1568 1567 1568 1565 1563 1562 1560 1560 1559 1558 1556 1555